Погода в Кэри

США     35°46′55″N   78°46′50″W
темп.,
°C
ветер,
м/с
пор.,
м/с
влажн.,
%
обл.,
%
осадки,
мм/ч
давл.,
гПа
погр.,
м
23 июня, ср
ср2323:00+19всв2691100 0.0 1017317
02:00+18всв278633 0.0 1017285
05:00+17св27850 0.0 1018213
08:00+19св48700 0.0 1020470
11:00+24всв45450 0.0 10221385
14:00+27всв44360 0.0 10212066
17:00+27в45341 0.0 10212278
20:00+23в47500 0.0 1022542
24 июня, чт
чт2423:00+19вюв49700 0.0 1024424
02:00+16всв27700 0.0 1024254
05:00+15св376918 0.0 1024215
08:00+17ссв486158 0.0 1026388
11:00+23св46370 0.0 10261201
14:00+27всв45260 0.0 10231725
17:00+28в44270 0.0 10221799
20:00+23в36480 0.0 1023361
25 июня, пт
пт2523:00+20в37600 0.0 1024185
02:00+18в27860 0.0 1023212
05:00+17св25920 0.0 1023171
08:00+20св35794 0.0 1025338
11:00+26всв3457100 0.0 10241117
14:00+26вюв226699 0.7 1023936
17:00+27ююв4565100 1.3 10221215
20:00+24ю2382100 2.7 102255
26 июня, сб
сб2623:00+21ююв2788100 1.0 1023167
02:00+20ююв2390100 1.0 102272
05:00+20юв119616 0.0 102231
08:00+21в0191100 0.0 102355
11:00+22в2591100 0.0 1023243
14:00+23вюв2482100 0.0 1023294
17:00+25юв2477100 0.0 1021361
20:00+23в2486100 0.0 1022132
27 июня, вс
вс2723:00+21юв1193100 0.0 102223
02:00+23ююв2787100 0.1 1022303
05:00+21ю139226 0.0 1022131
08:00+24ююв238321 0.0 1023369
11:00+29юв23515 0.0 10231459
14:00+33юв44371 0.0 10212448
17:00+30ююв464864 0.0 1021940
20:00+28юв38590 0.0 1021539